Find AMC 9

NORAD ID: 27820 Int'l Des: 2003-024 Owner: AMCS Country: US operational
HEOCIRCULAR

Current View

Loading 3D Globe...

About AMC 9

Description loading...

Upcoming Passes

Passes for default location (London). Set your location on the main map for personalized predictions.

Altitude History

Loading altitude history...

Two-Line Element Set

1 27820U 03024A 26151.27009545 -.00000035 00000-0 00000+0 0 9993
2 27820 7.8786 65.9362 0018885 351.5891 201.6881 0.99030628 83824
Epoch: May 31, 2026 • Age: 17 hours

Current Status

Altitude 36146.9 km
Velocity 3.06 km/s
Sub-Earth Point 7.89°N, 89.78°W
Launch Date Jun 6, 2003
Age 22.9 years
Type other

Technical Details

Classification Payload
Mass 4000.00 kg
Dry Mass 1500.00 kg
Total Mass 4000.00 kg
Length 5.50 m
Diameter 2.50 m
Span 38.00 m
Shape Box + 2 Pan
Manufacturer ALC
Bus Type Spacebus 3000B3
Phase Status In Orbit
Owner/State AMCS/US

Most Searched